Wind_Speed
26 27 27 27 27 27 28 28 28 28 28 28 28 28 28 28 28 29 29 29 29 29 28 28 29 29 28 28 29 29 29 29 29 29 29 29 29 29 28 28 28 28 28
27 27 27 27 28 28 29 29 29 28 29 29 29 29 29 29 29 30 30 30 30 30 30 30 30 31 31 31 31 31 31 31 31 30 30 31 31 31 31 30 30 30 30
29 29 29 29 30 30 30 31 31 30 30 30 30 30 31 31 31 31 32 32 32 32 32 33 32 32 33 33 33 32 32 32 33 33 32 33 33 33 33 33 33 33 33
31 31 31 31 31 31 32 33 33 33 33 33 32 32 32 32 33 33 33 34 34 34 34 34 35 35 35 35 35 35 35 35 35 35 35 35 35 35 35 35 35 35 35
33 33 33 33 33 33 33 34 35 35 35 35 35 35 35 35 35 35 36 36 36 36 36 37 37 38 38 38 38 38 38 38 38 38 38 37 37 37 37 37 37 37 37
34 34 34 34 34 34 35 35 36 37 37 38 37 37 37 37 37 38 38 39 39 38 39 39 40 40 40 40 40 40 41 40 40 41 41 40 40 39 39 39 39 39 39
34 34 34 35 35 36 36 36 37 38 38 39 39 39 39 38 39 39 39 40 41 41 41 42 42 42 42 42 42 43 43 43 43 43 43 42 42 42 41 41 41 41 41
36 36 36 36 37 37 38 38 39 39 40 40 41 41 41 41 41 41 41 42 42 42 43 44 44 45 45 45 45 45 45 46 46 45 45 44 44 44 44 44 44 44 44
37 37 38 38 39 39 40 40 41 41 40 41 42 43 43 42 43 43 43 43 43 44 45 45 46 47 47 47 48 47 47 47 48 48 48 48 47 45 45 46 46 46 46
40 39 39 40 40 41 42 42 43 42 42 43 43 44 45 45 44 44 44 44 45 45 46 47 47 48 49 50 50 50 50 50 49 49 50 50 50 48 48 48 48 48 48
41 40 41 41 42 43 44 44 45 44 43 44 44 44 45 45 45 45 44 45 45 46 46 47 48 49 50 50 51 51 52 52 51 51 51 52 52 52 51 50 50 50 50
42 42 42 42 43 43 44 45 46 45 45 45 45 45 44 45 45 45 45 46 46 47 47 48 48 48 49 49 50 51 52 53 53 54 53 53 54 54 54 53 53 53 53
42 42 43 43 44 44 44 46 46 47 46 46 46 46 46 46 47 46 46 47 47 47 47 47 48 48 49 49 50 51 52 53 54 55 56 56 56 57 57 56 56 56 56
43 44 44 44 44 45 46 47 47 47 48 46 46 47 47 48 49 48 47 47 47 46 47 48 48 49 49 49 50 51 52 54 55 56 56 57 58 58 59 59 59 59 59
43 44 44 45 45 46 47 48 47 47 47 47 47 47 48 48 49 49 48 48 48 47 47 48 50 50 50 50 50 51 52 52 54 55 55 56 58 59 60 61 61 61 61
44 44 45 46 46 47 47 47 47 47 48 48 48 47 47 49 49 50 50 50 49 49 49 49 50 51 51 52 52 52 52 52 53 54 55 57 58 60 60 60 60 61 61
45 45 46 46 46 46 47 47 47 48 48 48 48 48 48 49 49 49 50 50 51 51 51 50 51 52 53 54 53 53 53 53 53 55 56 57 58 58 58 59 59 60 60
45 45 46 46 46 46 47 48 48 48 48 49 49 48 48 49 49 50 50 51 51 51 51 51 52 52 53 53 53 53 53 53 54 55 56 56 57 58 58 59 59 59 60
45 45 46 46 46 47 47 48 48 48 48 49 48 48 48 49 49 50 50 51 51 51 51 51 52 53 53 53 54 54 54 54 54 55 56 57 57 59 59 59 60 60 60
45 45 45 45 45 45 46 47 47 47 48 48 48 48 49 49 48 48 49 50 50 50 50 51 51 52 52 53 53 54 54 55 55 55 55 56 57 58 59 60 60 61 61
45 45 45 45 46 46 46 46 47 47 47 48 48 48 48 48 48 48 48 49 49 50 50 51 51 52 53 53 53 53 54 55 55 55 55 55 56 57 58 59 60 61 60
45 45 45 45 45 45 45 45 46 47 47 47 47 47 47 47 47 48 48 49 50 50 51 52 52 52 52 53 53 53 53 54 53 54 54 54 55 56 56 57 58 58 58
45 45 45 45 45 46 46 46 46 46 46 46 46 47 47 47 48 48 48 49 50 51 52 52 52 52 52 52 52 52 52 52 53 53 53 53 54 55 56 55 55 55 56
44 44 45 45 45 46 46 46 46 46 46 46 46 47 47 47 47 47 47 48 50 51 52 52 53 52 52 52 52 52 51 51 51 52 53 53 54 54 54 53 53 53 54
44 44 45 45 46 46 46 46 45 45 45 46 46 46 47 47 47 48 48 49 49 50 51 52 52 52 52 52 52 52 52 52 51 52 53 52 51 51 51 51 51 51 52
44 44 45 45 45 45 45 45 45 45 44 45 46 46 47 47 47 48 49 49 50 50 51 51 52 52 52 52 52 53 53 52 52 51 51 51 50 49 49 49 50 51 51
Wind_Direction
264 264 261 259 259 260 259 259 258 259 261 261 261 261 261 260 259 258 258 258 259 259 260 259 258 259 259 260 260 259 259 259 259 259 259 260 261 261 260 259 259 259 259
265 265 264 261 261 261 260 259 259 260 262 262 263 262 263 262 261 260 259 259 259 259 260 260 260 260 260 260 261 261 260 260 260 260 261 261 261 260 260 259 259 259 259
266 266 266 264 264 264 262 259 259 260 262 263 264 265 265 264 262 261 260 259 259 259 260 260 261 261 261 261 262 262 260 260 260 261 261 261 261 261 260 260 259 259 259
268 268 266 266 266 266 264 262 261 261 262 263 265 266 266 265 263 262 261 259 259 260 260 261 261 261 262 262 262 262 262 261 261 261 261 261 261 260 260 261 260 259 258
269 268 267 267 267 266 265 263 261 261 262 263 265 266 267 266 265 263 262 260 260 260 261 261 261 261 262 263 263 263 263 262 261 261 261 261 261 260 260 261 260 260 260
269 268 268 268 267 267 266 264 263 262 262 263 265 267 267 266 265 264 263 261 261 260 261 262 262 262 262 262 262 263 263 263 263 262 262 262 261 261 261 261 259 260 260
269 268 269 269 268 267 266 266 265 264 263 264 265 266 267 267 265 265 264 263 262 262 263 263 263 262 262 262 263 263 263 264 264 264 263 262 261 262 262 260 260 260 260
269 269 270 270 269 269 269 268 268 267 265 264 265 266 267 267 266 265 264 263 263 265 264 264 264 263 263 263 263 263 263 264 265 264 264 262 261 262 262 261 261 261 261
270 270 270 270 270 271 270 270 269 269 268 266 266 267 267 267 267 266 265 264 264 265 265 265 265 265 264 264 263 263 263 263 264 264 264 264 264 262 261 261 261 261 260
270 271 271 271 271 271 271 271 271 270 270 269 269 268 267 268 268 266 264 264 265 266 266 266 265 265 265 264 264 263 263 263 263 264 264 264 264 263 262 261 261 261 261
271 272 274 273 272 272 272 272 273 272 270 270 270 269 268 267 267 266 264 265 265 266 266 266 266 266 266 265 265 264 264 263 263 263 263 264 264 264 262 262 261 261 261
272 274 275 275 274 273 274 273 274 273 272 271 270 269 267 266 267 267 267 266 266 266 267 267 266 267 267 267 266 266 265 264 263 263 263 263 263 263 263 263 262 261 261
273 274 274 275 275 275 275 275 274 274 273 271 269 269 267 267 267 269 268 267 266 266 267 267 267 268 268 268 268 267 266 265 264 264 263 262 263 263 263 263 263 262 262
274 275 275 277 276 275 276 275 275 274 273 272 270 269 268 268 268 268 268 267 266 266 267 267 267 268 269 269 269 268 268 266 266 265 264 264 263 263 263 263 263 263 263
274 275 276 277 277 277 276 275 275 274 274 272 271 270 269 269 268 267 268 267 266 266 266 267 268 269 269 269 269 269 269 267 266 265 264 264 264 263 263 264 264 264 263
274 275 276 277 278 277 276 276 275 274 273 273 272 271 270 270 269 268 267 268 268 267 267 268 268 269 270 270 270 270 269 268 267 266 265 266 266 265 265 265 264 264 264
273 274 276 276 277 276 276 276 275 275 274 273 273 272 271 270 269 268 269 269 269 269 268 269 270 270 271 271 271 271 270 269 269 268 268 268 267 267 266 266 265 265 265
274 275 276 277 277 277 277 277 276 275 274 274 274 273 271 270 269 269 270 270 270 270 270 270 271 272 272 271 271 271 271 271 270 269 268 268 267 267 266 266 266 266 266
275 276 277 278 278 279 278 277 276 275 275 275 275 274 272 271 270 271 271 271 271 272 271 271 272 272 272 271 271 271 271 271 270 269 268 267 267 267 266 266 267 267 266
276 277 278 279 279 279 279 277 277 277 276 276 275 274 273 272 272 271 272 272 272 273 273 273 273 272 271 272 271 272 272 271 270 270 269 269 268 268 267 267 267 268 268
277 277 278 279 279 279 279 279 278 278 277 277 276 276 274 274 274 273 273 273 273 273 275 275 274 273 273 273 273 273 273 271 271 271 270 270 269 268 268 268 269 269 268
276 277 278 278 277 278 279 279 278 278 278 277 277 276 275 276 276 275 274 274 274 274 275 275 274 274 275 274 273 273 273 272 272 272 272 272 271 269 269 269 270 269 268
277 277 277 277 277 278 278 279 279 278 277 277 277 276 276 276 276 276 276 275 275 275 276 276 276 276 276 275 274 275 275 274 274 274 274 274 273 271 270 270 269 268 268
277 277 277 277 278 278 278 278 278 278 277 277 277 277 277 277 277 277 276 277 277 277 278 278 277 277 277 276 276 276 276 276 276 276 276 276 274 272 270 269 268 269 269
278 278 277 278 278 278 278 278 278 278 278 278 278 278 277 278 278 277 277 278 279 280 280 279 278 277 277 277 277 277 277 276 276 277 277 277 274 272 271 269 269 270 270
278 278 279 279 279 279 278 278 278 278 278 279 279 279 279 278 278 278 279 279 280 280 281 280 278 277 277 277 277 277 277 277 277 276 276 276 274 272 271 270 270 270 271
Height
5763 5764 5765 5766 5767 5768 5769 5771 5772 5773 5774 5776 5777 5778 5779 5780 5781 5782 5784 5785 5786 5787 5788 5790 5791 5792 5793 5794 5795 5796 5797 5798 5800 5801 5802 5803 5804 5805 5806 5806 5807 5808 5809
5756 5757 5757 5759 5760 5761 5762 5763 5765 5766 5768 5769 5770 5771 5772 5773 5774 5775 5776 5778 5779 5780 5781 5782 5784 5785 5786 5787 5788 5789 5790 5791 5793 5794 5795 5796 5797 5797 5798 5800 5800 5801 5802
5749 5750 5750 5751 5752 5753 5754 5756 5757 5759 5760 5761 5762 5763 5764 5765 5766 5767 5768 5770 5771 5772 5774 5775 5776 5777 5778 5779 5780 5781 5782 5784 5785 5786 5787 5788 5789 5790 5791 5792 5793 5794 5795
5741 5742 5742 5743 5744 5745 5746 5747 5749 5750 5752 5753 5754 5755 5756 5756 5758 5759 5760 5761 5763 5764 5765 5766 5767 5769 5770 5771 5772 5773 5774 5775 5776 5778 5779 5780 5780 5782 5783 5784 5785 5786 5787
5733 5733 5734 5735 5735 5736 5737 5738 5740 5741 5742 5744 5745 5746 5746 5747 5748 5749 5750 5752 5753 5755 5756 5757 5758 5760 5761 5762 5763 5764 5765 5766 5767 5768 5770 5771 5771 5772 5774 5775 5776 5777 5778
5724 5725 5725 5726 5726 5727 5728 5729 5730 5731 5732 5734 5735 5736 5736 5737 5738 5739 5740 5742 5743 5745 5746 5747 5749 5750 5751 5752 5753 5754 5755 5756 5757 5758 5759 5761 5762 5763 5764 5765 5766 5768 5769
5716 5716 5717 5717 5717 5718 5718 5719 5720 5721 5722 5723 5725 5726 5727 5727 5728 5729 5730 5731 5733 5734 5735 5737 5738 5739 5740 5742 5743 5744 5745 5745 5746 5748 5749 5750 5751 5753 5754 5755 5756 5757 5759
5708 5708 5708 5708 5708 5709 5709 5710 5710 5711 5712 5713 5714 5715 5716 5718 5718 5718 5719 5720 5722 5723 5724 5725 5726 5727 5729 5730 5731 5732 5733 5734 5735 5736 5737 5739 5740 5741 5743 5744 5745 5746 5748
5699 5699 5699 5699 5699 5699 5699 5699 5700 5701 5701 5702 5702 5703 5704 5706 5706 5707 5707 5708 5710 5711 5711 5713 5714 5715 5716 5717 5719 5720 5721 5722 5723 5724 5725 5726 5727 5729 5730 5731 5733 5734 5736
5689 5689 5689 5689 5689 5689 5689 5689 5689 5690 5690 5691 5691 5691 5692 5692 5693 5695 5696 5696 5697 5697 5698 5699 5700 5701 5702 5704 5705 5706 5708 5709 5710 5710 5711 5713 5714 5716 5717 5718 5720 5721 5723
5680 5680 5679 5679 5679 5679 5678 5678 5678 5678 5679 5679 5679 5679 5679 5680 5680 5681 5683 5685 5685 5685 5685 5686 5686 5687 5688 5689 5690 5692 5693 5694 5695 5696 5698 5699 5700 5702 5703 5705 5706 5707 5709
5670 5669 5669 5668 5668 5668 5668 5667 5667 5667 5666 5667 5667 5667 5667 5668 5669 5669 5671 5671 5672 5672 5672 5672 5673 5673 5674 5675 5675 5676 5678 5679 5680 5681 5683 5684 5685 5687 5688 5690 5691 5693 5694
5659 5659 5658 5658 5657 5657 5656 5656 5655 5655 5654 5654 5655 5655 5655 5655 5656 5657 5658 5658 5658 5659 5659 5659 5659 5659 5660 5660 5661 5661 5662 5663 5664 5665 5667 5668 5670 5671 5673 5674 5676 5677 5679
5648 5647 5647 5646 5646 5645 5645 5644 5643 5643 5642 5642 5642 5643 5643 5643 5643 5643 5644 5645 5646 5646 5646 5646 5646 5645 5646 5646 5646 5646 5646 5647 5648 5649 5650 5651 5653 5654 5656 5657 5659 5660 5662
5637 5636 5635 5635 5634 5633 5632 5631 5631 5630 5630 5630 5629 5630 5630 5630 5630 5630 5630 5631 5632 5633 5633 5632 5632 5631 5631 5631 5631 5631 5631 5631 5631 5632 5633 5634 5635 5637 5638 5639 5641 5642 5643
5625 5624 5624 5623 5622 5621 5620 5619 5618 5618 5617 5617 5616 5616 5616 5616 5616 5616 5616 5616 5617 5618 5619 5619 5618 5617 5616 5616 5616 5615 5615 5615 5615 5616 5616 5617 5618 5619 5620 5621 5622 5623 5624
5614 5613 5612 5611 5609 5608 5607 5606 5605 5605 5604 5603 5603 5603 5602 5602 5602 5602 5602 5602 5602 5603 5604 5604 5602 5602 5601 5600 5600 5599 5599 5599 5599 5599 5599 5600 5601 5601 5602 5603 5604 5605 5606
5601 5600 5599 5598 5597 5596 5595 5594 5593 5592 5591 5590 5589 5589 5588 5588 5588 5588 5588 5588 5587 5587 5588 5588 5587 5586 5585 5584 5584 5584 5583 5583 5583 5583 5583 5583 5583 5584 5584 5585 5585 5586 5588
5589 5588 5587 5586 5585 5583 5582 5581 5580 5579 5577 5576 5575 5575 5574 5574 5574 5574 5573 5573 5573 5572 5572 5572 5572 5570 5569 5568 5568 5568 5567 5567 5566 5566 5566 5566 5566 5566 5567 5567 5567 5568 5569
5577 5576 5574 5573 5572 5571 5569 5568 5567 5565 5564 5563 5562 5561 5560 5560 5560 5560 5559 5559 5558 5558 5557 5556 5556 5555 5554 5552 5552 5551 5551 5550 5550 5549 5549 5549 5549 5549 5549 5549 5550 5550 5550
5565 5564 5562 5561 5559 5558 5556 5555 5553 5552 5551 5550 5548 5547 5547 5546 5546 5546 5545 5545 5544 5543 5542 5541 5540 5539 5538 5537 5536 5535 5535 5534 5534 5533 5533 5533 5532 5533 5532 5531 5531 5531 5531
5552 5551 5550 5548 5547 5545 5544 5542 5540 5539 5538 5537 5536 5534 5534 5533 5532 5532 5531 5530 5529 5528 5527 5526 5525 5524 5522 5521 5520 5518 5518 5519 5519 5518 5517 5517 5515 5515 5514 5514 5513 5513 5512
5540 5539 5537 5535 5534 5532 5531 5529 5527 5526 5525 5524 5523 5522 5521 5520 5519 5518 5517 5515 5514 5513 5512 5510 5509 5507 5506 5505 5505 5504 5503 5502 5502 5500 5500 5501 5499 5498 5497 5496 5496 5495 5495
5527 5526 5524 5522 5521 5520 5518 5517 5515 5513 5512 5511 5510 5509 5508 5506 5505 5504 5503 5501 5500 5498 5496 5495 5494 5493 5490 5489 5488 5488 5487 5487 5487 5484 5483 5484 5483 5482 5481 5479 5479 5478 5478
5514 5513 5511 5510 5508 5507 5505 5503 5502 5501 5500 5498 5497 5495 5494 5493 5491 5490 5489 5488 5486 5483 5481 5479 5478 5476 5475 5474 5473 5472 5472 5471 5471 5470 5467 5467 5466 5466 5465 5464 5462 5461 5461
5501 5500 5498 5497 5495 5494 5492 5490 5489 5488 5487 5486 5484 5482 5481 5479 5477 5475 5474 5473 5471 5469 5467 5465 5463 5461 5460 5459 5458 5457 5456 5455 5455 5455 5452 5451 5450 5449 5451 5450 5447 5446 5445